Buffalo, NY

10:21 PM EST on December 05, 2019 (GMT -0500)
Buffalo Niagara International

Weather History for KBUF - August, 2019

Change the Weather History Date:

Wednesday, August 28, 2019

  Actual Average Record
Temperature  
Mean Temperature 73 °F 68 °F  
Max Temperature 79 °F 77 °F 92 °F (1948)
Min Temperature 66 °F 59 °F 43 °F (1982)
Degree Days  
Heating Degree Days 0 1  
Month to date heating degree days 2 13  
Since 1 June heating degree days 64 86  
Since 1 July heating degree days 2 22  
Cooling Degree Days 8 4  
Month to date cooling degree days 172 149  
Year to date cooling degree days 540 475  
Since 1 June cooling degree days 532 449  
Growing Degree Days 24 (Base 50)    
Moisture  
Dew Point 62 °F    
Average Humidity 67    
Maximum Humidity 90    
Minimum Humidity 43    
Precipitation  
Precipitation 0.05 in 0.10 in 2.16 in (1979)
Month to date precipitation 3.62 2.95  
Year to date precipitation 28.37 24.85  
Snow  
Snow 0.00 in 0.00 in 0.00 in ()
Month to date snowfall 0.0 0.0  
Since 1 June snowfall 0.0 0.0  
Since 1 July snowfall 0.0 0.0  
Snow Depth 0.00 in    
Sea Level Pressure  
Sea Level Pressure 29.83 in    
Wind  
Wind Speed 11 mph (SW)    
Max Wind Speed 25 mph    
Max Gust Speed 34 mph    
Visibility 9 miles    
Events Rain    
T = Trace of Precipitation, MM = Missing Value Source: NWS Daily Summary

Daily Weather History Graph

Daily Weather History Graph

Search for Another Location

Airport or City:

Astronomy

Aug. 28, 2019 Rise Set
Actual Time 6:34 AM EDT 7:56 PM EDT
Civil Twilight 6:05 AM EDT 8:26 PM EDT
Nautical Twilight 5:29 AM EDT 9:01 PM EDT
Astronomical Twilight 4:52 AM EDT 9:38 PM EDT
Moon 4:00 AM EDT (8/28) 7:11 PM EDT (8/28)
Length of Visible Light 14h 20m
Length of Day
13h 21m
Waning Crescent, 5% of the Moon is Illuminated
Aug 28
Waning Crescent
Aug 30
New
Sep 5
First Quarter
Sep 14
Full
Sep 21
Last Quarter

Hourly Weather History & Observations

Time (EDT) Temp. Dew Point Humidity Pressure Visibility Wind Dir Wind Speed Gust Speed Precip Events Conditions
12:01 AM 68.0 °F 66.0 °F 93% 29.85 in 6.0 mi South 11.5 mph - 0.01 in Rain Light Rain
12:08 AM 68.0 °F 66.0 °F 93% 29.85 in 9.0 mi South 10.4 mph - 0.01 in Rain Light Rain
12:54 AM 69.1 °F 66.0 °F 90% 29.84 in 4.0 mi South 11.5 mph - 0.01 in Rain Light Rain
1:54 AM 69.1 °F 66.9 °F 93% 29.83 in 10.0 mi SSW 8.1 mph - 0.02 in   Overcast
2:54 AM 69.1 °F 66.9 °F 93% 29.82 in 10.0 mi SSW 6.9 mph - N/A   Overcast
3:29 AM 69.1 °F 66.9 °F 93% 29.81 in 10.0 mi South 6.9 mph - 0.00 in Rain Light Rain
3:52 AM 69.8 °F 66.2 °F 88% 29.81 in 10.0 mi SSW 4.6 mph - 0.00 in   Overcast
3:54 AM 70.0 °F 66.9 °F 90% 29.80 in 10.0 mi SSW 4.6 mph - 0.00 in Rain Light Rain
4:05 AM 70.0 °F 66.9 °F 90% 29.81 in 8.0 mi SSW 6.9 mph - 0.00 in Rain Light Rain
4:15 AM 69.1 °F 66.9 °F 93% 29.81 in 7.0 mi SW 5.8 mph - 0.01 in Rain Light Rain
4:30 AM 69.1 °F 66.9 °F 93% 29.81 in 10.0 mi Variable 3.5 mph - 0.01 in   Overcast
4:54 AM 69.1 °F 66.9 °F 93% 29.80 in 7.0 mi South 4.6 mph - 0.04 in Rain Light Rain
5:01 AM 70.0 °F 66.9 °F 90% 29.81 in 10.0 mi SSW 6.9 mph - 0.00 in Rain Light Rain
5:54 AM 70.0 °F 68.0 °F 93% 29.80 in 10.0 mi SSW 3.5 mph - 0.00 in   Overcast
6:54 AM 71.1 °F 68.0 °F 90% 29.82 in 10.0 mi West 6.9 mph - 0.00 in Rain Light Rain
7:54 AM 70.0 °F 66.9 °F 90% 29.83 in 10.0 mi West 4.6 mph - 0.00 in   Mostly Cloudy
8:54 AM 70.0 °F 66.9 °F 90% 29.83 in 10.0 mi SSW 5.8 mph - N/A   Mostly Cloudy
9:54 AM 75.0 °F 64.0 °F 69% 29.83 in 10.0 mi Variable 4.6 mph - N/A   Scattered Clouds
10:54 AM 75.0 °F 55.9 °F 51% 29.83 in 10.0 mi West 8.1 mph - N/A   Scattered Clouds
11:54 AM 77.0 °F 63.0 °F 62% 29.83 in 10.0 mi SSW 9.2 mph - N/A   Scattered Clouds
12:54 PM 77.0 °F 59.0 °F 54% 29.83 in 10.0 mi SW 15.0 mph - N/A   Scattered Clouds
1:54 PM 79.0 °F 59.0 °F 50% 29.82 in 10.0 mi WSW 18.4 mph 23.0 mph N/A   Scattered Clouds
2:54 PM 77.0 °F 64.0 °F 64% 29.82 in 10.0 mi SW 18.4 mph 24.2 mph N/A   Scattered Clouds
3:54 PM 77.0 °F 54.0 °F 45% 29.81 in 10.0 mi SW 17.3 mph 29.9 mph N/A   Partly Cloudy
4:54 PM 75.0 °F 54.0 °F 48% 29.83 in 10.0 mi SW 19.6 mph 31.1 mph N/A   Partly Cloudy
5:54 PM 73.9 °F 54.0 °F 50% 29.84 in 10.0 mi WSW 20.7 mph 31.1 mph N/A   Partly Cloudy
6:54 PM 73.0 °F 55.9 °F 55% 29.84 in 10.0 mi WSW 24.2 mph 28.8 mph N/A   Partly Cloudy
7:54 PM 71.1 °F 55.9 °F 59% 29.85 in 10.0 mi WSW 11.5 mph 23.0 mph N/A   Partly Cloudy
8:54 PM 70.0 °F 57.0 °F 63% 29.86 in 10.0 mi WSW 11.5 mph - N/A   Partly Cloudy
9:54 PM 71.1 °F 55.9 °F 59% 29.87 in 10.0 mi WSW 13.8 mph 23.0 mph N/A   Clear
10:54 PM 70.0 °F 57.0 °F 63% 29.87 in 10.0 mi West 12.7 mph - N/A   Partly Cloudy
11:54 PM 69.1 °F 57.0 °F 65% 29.86 in 10.0 mi West 8.1 mph - N/A   Scattered Clouds